TimeEST,TemperatureF,Dew PointF,Humidity,Sea Level PressureIn,VisibilityMPH,Wind Direction,Wind SpeedMPH,Gust SpeedMPH,PrecipitationIn,Events,Conditions,WindDirDegrees,DateUTC
12:15 AM,42.1,39.9,92,30.40,1.8,Calm,Calm,-,N/A,,Clear,0,2013-11-22 05:15:00
12:19 AM,41.0,39.9,96,30.40,0.8,Calm,Calm,-,N/A,,Clear,0,2013-11-22 05:19:00
12:26 AM,41.0,39.0,93,30.40,0.8,Calm,Calm,-,N/A,,Mist,0,2013-11-22 05:26:00
12:42 AM,41.0,39.0,93,30.39,1.2,Calm,Calm,-,N/A,,Mostly Cloudy,0,2013-11-22 05:42:00
12:47 AM,39.9,39.0,97,30.39,2.5,Calm,Calm,-,N/A,,Scattered Clouds,0,2013-11-22 05:47:00
12:54 AM,41.0,39.0,93,30.39,10.0,SE,3.5,-,N/A,,Scattered Clouds,130,2013-11-22 05:54:00
1:54 AM,43.0,41.0,93,30.38,10.0,Calm,Calm,-,N/A,,Overcast,0,2013-11-22 06:54:00
2:54 AM,45.0,42.1,90,30.35,10.0,SW,4.6,-,N/A,,Overcast,220,2013-11-22 07:54:00
3:54 AM,46.9,46.0,97,30.31,6.0,SSW,4.6,-,N/A,,Partly Cloudy,200,2013-11-22 08:54:00
4:54 AM,48.0,46.0,93,30.30,10.0,South,4.6,-,N/A,,Scattered Clouds,190,2013-11-22 09:54:00
5:54 AM,48.9,46.9,93,30.29,9.0,SSW,5.8,-,N/A,,Overcast,210,2013-11-22 10:54:00
6:54 AM,48.9,46.9,93,30.27,10.0,South,5.8,-,N/A,,Clear,180,2013-11-22 11:54:00
7:54 AM,52.0,50.0,93,30.27,8.0,SW,6.9,-,N/A,,Mostly Cloudy,220,2013-11-22 12:54:00
8:47 AM,54.0,51.1,90,30.26,8.0,SW,11.5,-,N/A,,Scattered Clouds,230,2013-11-22 13:47:00
8:54 AM,55.0,51.1,86,30.26,8.0,SW,11.5,-,N/A,,Scattered Clouds,220,2013-11-22 13:54:00
9:10 AM,55.0,52.0,89,30.25,9.0,SSW,10.4,-,N/A,,Mostly Cloudy,210,2013-11-22 14:10:00
9:34 AM,55.9,52.0,87,30.24,10.0,SW,9.2,-,N/A,,Mostly Cloudy,230,2013-11-22 14:34:00
9:54 AM,57.0,52.0,83,30.24,10.0,SW,15.0,20.7,N/A,,Mostly Cloudy,230,2013-11-22 14:54:00
10:22 AM,57.0,52.0,83,30.22,-9999.0,North,-9999.0,-,N/A,,Unknown,0,2013-11-22 15:22:00
10:54 AM,-9999,-9999,N/A,30.21,-9999.0,North,-9999.0,-,N/A,,Unknown,0,2013-11-22 15:54:00
11:54 AM,-9999,-9999,N/A,30.17,-9999.0,North,-9999.0,-,N/A,,Unknown,0,2013-11-22 16:54:00
12:54 PM,-9999,-9999,N/A,30.14,-9999.0,North,-9999.0,-,N/A,,Unknown,0,2013-11-22 17:54:00
1:54 PM,-9999,-9999,N/A,30.11,-9999.0,North,-9999.0,-,N/A,,Unknown,0,2013-11-22 18:54:00
2:54 PM,60.1,52.0,75,30.10,10.0,SW,10.4,-,N/A,,Unknown,230,2013-11-22 19:54:00
3:54 PM,59.0,52.0,78,30.09,10.0,WSW,3.5,-,N/A,,Overcast,240,2013-11-22 20:54:00
4:54 PM,57.9,52.0,81,30.07,10.0,SSW,6.9,-,N/A,,Overcast,210,2013-11-22 21:54:00
5:54 PM,55.9,53.1,90,30.06,7.0,Calm,Calm,-,0.02,Rain,Light Rain,0,2013-11-22 22:54:00
6:54 PM,55.9,54.0,93,30.04,8.0,SSW,3.5,-,0.01,,Overcast,200,2013-11-22 23:54:00
7:54 PM,55.9,54.0,93,30.01,7.0,South,3.5,-,0.01,,Overcast,170,2013-11-23 00:54:00
8:54 PM,55.9,54.0,93,29.99,5.0,South,3.5,-,0.02,Rain,Light Rain,180,2013-11-23 01:54:00
9:54 PM,57.9,55.9,93,29.99,7.0,SW,5.8,-,0.02,Rain,Light Rain,230,2013-11-23 02:54:00
10:14 PM,59.0,55.9,90,30.00,3.0,NW,5.8,-,0.04,Rain,Rain,320,2013-11-23 03:14:00
10:23 PM,57.9,55.9,93,30.00,2.0,NNW,9.2,-,0.07,Rain,Rain,330,2013-11-23 03:23:00
10:26 PM,57.0,55.0,93,30.00,3.0,NNW,8.1,-,0.08,Rain,Rain,340,2013-11-23 03:26:00
10:36 PM,57.9,55.9,93,30.00,4.0,West,5.8,-,0.09,Rain,Light Rain,280,2013-11-23 03:36:00
10:46 PM,57.9,55.9,93,29.99,4.0,West,8.1,-,0.10,Rain,Light Rain,270,2013-11-23 03:46:00
10:54 PM,57.9,55.9,93,30.00,8.0,West,6.9,-,0.10,Rain,Light Rain,260,2013-11-23 03:54:00
11:12 PM,57.9,55.9,93,29.99,9.0,West,4.6,-,0.01,Rain,Light Rain,260,2013-11-23 04:12:00
11:54 PM,57.9,55.9,93,29.99,9.0,West,4.6,-,0.01,,Mostly Cloudy,270,2013-11-23 04:54:00